Other Public Products
Issued by NWS Grand Forks, ND

Home | Current Version | Previous Version | Graphics & Text | Print | Product List | Glossary On
Versions: 1 2 3 4 5 6 7 8 9 10 11 12 13 14 15 16 17 18 19 20 21 22 23 24 25 26 27 28 29 30 31 32 33 34 35 36 37 38 39 40 41 42 43 44 45 46 47 48 49 50
000
FPUS83 KFGF 291431
OPUFGF
PRAIRIE TO PINES WEATHER ROUNDUP
NATIONAL WEATHER SERVICE EASTERN NORTH DAKOTA/GRAND FORKS ND
900 AM CDT WED MAR 29 2017

 **SATELLITE DATA USED TO AUGMENT SKY COVER AT AUTOMATED STATIONS**
 *****  WEATHER ACROSS EASTERN NORTH DAKOTA  *****

CITY           SKY/WX    TMP DP  RH WIND       PRES   REMARKS
GRAND FORKS    PTSUNNY   36  33  89 S7        30.16F
GRAND FORKS AF FAIR      34  34 100 CALM      30.16S
GRAND CITY NWS NOT AVBL
BUXTON         NOT AVBL
DEVILS LAKE    FAIR      42  38  85 S9        30.14F
FARGO          FAIR      39  36  89 CALM      30.18R
WAHPETON ARPT    N/A     43  34  70 SE5       30.18F
$$

 *****  WEATHER ACROSS CENTRAL AND WESTERN NORTH DAKOTA  *****

CITY           SKY/WX    TMP DP  RH WIND       PRES   REMARKS
JAMESTOWN      FAIR      35  34  96 CALM      30.15S FOG
BISMARCK       FAIR      41  39  93 SE7       30.13F
MINOT          CLOUDY    44  40  85 S9        30.06S
MINOT AFB      PTSUNNY   41  41 100 S7        30.05S
GARRISON         N/A     39  37  92 S5        30.09S
WILLISTON      CLOUDY    34  34 100 SW3       30.05S FOG
DICKINSON      CLOUDY    41  40  96 S14       30.06S
HETTINGER      FAIR      39  38  96 W3        30.11S
$$

 *****  OTHER OBSERVATIONS NORTHEAST NORTH DAKOTA  *****

CITY           SKY/WX    TMP DP  RH WIND       PRES   REMARKS
WALHALLA       NOT AVBL
LANGDON        FAIR      37  36  93 S15       30.12F
CAVALIER       FAIR      37  34  87 S6        30.15S
GRAFTON        FAIR      37  36  93 SE7       30.17F
CANDO          NOT AVBL
FORT TOTTEN      N/A     40  40 100 S7        29.95S
ROLLA          CLOUDY    37  37 100 S13       30.09S
RUGBY          NOT AVBL
 ***** THE ABOVE OBSERVATIONS ARE NON NWS ARE NOT QUALITY
        CONTROLLED AND MAY MIS-REPORT RAIN FOR SNOW...
$$

 *****  OTHER OBSERVATIONS SOUTHEAST NORTH DAKOTA *****

CITY           SKY/WX    TMP DP  RH WIND       PRES   REMARKS
COOPERSTOWN    FAIR      37  36  93 W5        30.16S
VALLEY CITY    FAIR      37  37 100 CALM      30.17F
OAKES          NOT AVBL
GWINNER        SUNNY     41  41 100 MISG      30.17R FOG
SHEYENNE NWR     N/A     37  37 100 N2        29.95S
BUFFALO        NOT AVBL
WYNDMERE         N/A     39  37  93 SE7         N/A
 ***** THE ABOVE OBSERVATIONS ARE NON NWS ARE NOT QUALITY
       CONTROLLED AND MAY MIS-REPORT RAIN FOR SNOW...
$$

  *****  WEATHER ACROSS NORTHERN MINNESOTA  *****

CITY           SKY/WX    TMP DP  RH WIND       PRES   REMARKS
FLAG ISLAND    FAIR      36  27  69 SE7       30.21F
WARROAD        FAIR      37  30  75 E6        30.20F
ROSEAU         FAIR      41  32  70 SE6       30.19F
HALLOCK        FAIR      37  34  87 SE3       30.16F
THF RVR FALLS  FAIR      38  30  73 SE7       30.19F
HALSTAD          N/A     38  34  84 SE5         N/A
FOSSTON        FAIR      39  28  65 SE9       30.19S
BAUDETTE       FAIR      35  26  69 MISG      30.23S
WASKISH        FAIR      37  28  70 E6        30.22F
CROOKSTON      FAIR      39  34  81 SE3       30.18S
$$
  *****  WEATHER ACROSS CENTRAL AND WEST MINNESOTA  *****

CITY           SKY/WX    TMP DP  RH WIND       PRES   REMARKS
BEMIDJI        FAIR      36  29  74 SE8       30.22F
PARK RAPIDS    FAIR      37  26  64 SE6       30.21S
WADENA         FAIR      36  28  75 E7        30.21S
DETROIT LAKES  FAIR      41  30  65 SE10      30.20S
MOORHEAD       FAIR      41  34  75 CALM      30.19S
FERGUS FALLS   FAIR      45  30  57 SE5       30.22S
ELBOW LAKE     FAIR      42  33  71 SE10      30.19S
MORRIS MN      FAIR      43  36  75 E8        30.18S
STAPLES        FAIR      36  28  75 SE6       30.22F
WHEATON        FAIR      37  36  93 E3        30.20F FOG
$$
  *****  WEATHER ELSEWHERE ACROSS MINNESOTA  *****

CITY           SKY/WX    TMP DP  RH WIND       PRES   REMARKS
DULUTH         FAIR      34  29  82 E15       30.29S WCI  24
INTRNTL FALLS  FAIR      34  25  69 E9        30.27F
ELY            FAIR      34  25  69 E3        30.30S
CLOQUET        FAIR      34  28  80 E12       30.29S
BRAINERD       FAIR      35  29  78 VRB3      30.24F
HIBBING        FAIR      31  26  82 E3        30.28S
ALEXANDRIA     FAIR      39  30  70 E9        30.21S
SAINT CLOUD    FAIR      37  30  75 E8        30.24R
MINNEAPOLIS    CLOUDY    46  33  60 SE5       30.24R
$$

  *****  WEATHER ACROSS SOUTH DAKOTA  *****

CITY           SKY/WX    TMP DP  RH WIND       PRES   REMARKS
SIOUX FALLS    LGT RAIN  45  41  86 E7        30.15R
BROOKINGS      FAIR      47  38  71 E7        30.14F
WATERTOWN      FAIR      42  37  82 CALM      30.15S
HURON          FAIR      44  38  79 NE3       30.15R
SISSETON         N/A     39  37  92 CALM      30.17S
ABERDEEN       FAIR      40  34  79 N5        30.17R
MITCHELL       FAIR      45  40  82 E8        30.14S
PIERRE         CLOUDY    44  42  93 NW7       30.14S
MOBRIDGE       CLOUDY    45  40  82 CALM      30.11F
RAPID CITY     CLOUDY    40  39  97 CALM      30.11S
$$

  *****  SOME WEATHER IN NEARBY STATES *****

CITY           SKY/WX    TMP DP  RH WIND       PRES   REMARKS
GLASGOW MT     FAIR      39  29  67 SW6       30.02R
GREAT FALLS MT FAIR      41  27  57 SW12      30.03F
CHEYENNE WY    CLOUDY    36  33  89 N13       30.11S
SCOTTSBLUFF NE CLOUDY    41  38  89 W7        30.11F
OMAHA NE       LGT RAIN  45  41  86 NE18G25   30.01F FOG
DES MOINES IA  LGT RAIN  43  40  89 E15       30.06S FOG
DAVENPORT IA   CLOUDY    41  39  93 E13       30.21R FOG
CHICAGO IL     CLOUDY    40  35  83 NE10      30.23F
EAU CLAIRE WI  FAIR      42  29  59 SE8       30.26R
LA CROSSE WI   FAIR      44  34  67 E6        30.26R
$$

  *****  SOME NATIONAL WEATHER *****

CITY           SKY/WX    TMP DP  RH WIND       PRES   REMARKS
LA GUARDIA NY  CLOUDY    48  37  65 N12       30.07R
RALEIGH NC     FAIR      65  54  67 E13       30.07R
ATLANTA GA     FAIR      68  54  60 SE7       30.06S
NEW ORLEANS LA PTSUNNY   73  68  84 SE9       29.95R
OKLAHOMA CITY  FOG       52  52 100 SW5       29.64S VSB 1/2
ALBUQUERQUE NM PTSUNNY   43  39  86 N8        29.95R
SALT LAKE CITY MOCLDY    36  30  79 S7        30.25R
LOS ANGELES CA FAIR      56  52  86 CALM      30.02R
BOISE ID       CLOUDY    44  32  62 SE9       30.17F
SEATTLE WA     LGT RAIN  46  45  96 SE9       29.88F FOG
$$

*** WEATHER ACROSS MANITOBA...SASKATCHEWAN AND ONTARIO ***
                ***ONTARIO***

CITY           SKY/WX    TMP DP  RH WIND       PRES   REMARKS
GERALDTON      MOSUNNY   25  18  74 E5        30.43S WCI  19
THUNDER BAY    CLOUDY    32  27  80 E10       30.42F WCI  24
SIOUX LOOKOUT  CLOUDY    30  19  64 SE8       30.32S WCI  23
TORONTO        PTSUNNY   41  28  60 NE5       30.26S
BIG TROUT LK   PTSUNNY   16  10  79 SE3       30.43S
PICKLE LAKE    PTSUNNY   25  16  68 SE10      30.39F WCI  15
DRYDEN         PTSUNNY   32  21  64 SE13      30.28S WCI  22
KENORA         PTSUNNY   36  23  60 SE12      30.23S
$$
                *** MANITOBA***

CITY           SKY/WX    TMP DP  RH WIND       PRES   REMARKS
BRANDON        PTSUNNY   32  30  93 E6        30.07F
DAUPHIN        CLOUDY    32  30  93 S3        30.07S
ISLAND LAKE    NOT AVBL
PILOT MOUND      N/A     37  34  87 S15         N/A
THE PAS        CLOUDY    30  27  86 SE16      30.05F WCI  19
THOMPSON       CLOUDY    16  10  79 VRB3      30.20F
WINNIPEG       PTSUNNY   37  30  75 SE12      30.14F
LYNN LAKE      CLOUDY    23  16  74 E5        30.09F WCI  17
CHURCHILL      PTSUNNY    7   3  85 S9        30.34F WCI  -7
GILLAM         PTSUNNY   21  12  68 S6        30.29F WCI  14
$$
                ***SASKATCHEWAN***

CITY           SKY/WX    TMP DP  RH WIND       PRES   REMARKS
ESTEVAN        CLOUDY    34  34 100 S6        30.02R
KINDERSLEY     MOCLDY    36  28  75 CALM      29.84S
LLOYDMINSTER   CLOUDY    34  34 100 E3        29.86S FOG
PRINCE ALBERT  LGT RAIN  34  32  93 SE7       29.90R FOG
REGINA         PTSUNNY   36  36 100 SE9       29.93F
YORKTON        FOG       34  32  93 SE8       29.97F VS



USA.gov is the U.S. government's official web portal to all federal, state and local government web resources and services.